RH
72 74 75 75 74 71 69 68 67 67 67 66 64 62 61 60 61 61 58 56 55 54 53 53 52 50 48 49 54 55 55 58 64 69 74 78 79 80 79 73 70 76 79 78 79 77 75 77 80 79 76 79 81 78 75 75 74 72 69 66 67 69 70 73 71 70 73 74 71 69 66 64 67 67 66 71 71 61 56 58 59 60 69 82 85
69 72 73 74 74 72 71 70 69 69 70 69 66 63 61 59 60 62 59 56 55 54 53 53 52 51 48 46 48 50 50 51 55 60 64 68 74 80 82 75 71 76 77 75 76 75 73 74 78 79 75 76 79 77 74 74 72 72 72 73 73 72 71 73 75 73 73 75 76 75 72 69 70 71 69 69 67 60 57 62 67 67 68 77 83
66 70 71 71 72 72 72 72 70 70 71 70 68 65 62 60 59 60 59 58 56 53 52 53 51 48 46 45 46 47 47 47 50 54 55 58 63 71 77 76 75 78 78 77 78 79 78 77 79 81 78 78 79 77 75 75 75 74 75 77 76 76 74 72 75 77 74 75 77 76 76 77 77 73 69 66 64 62 59 62 70 71 68 76 80
63 68 71 69 71 73 73 73 71 70 70 68 68 66 64 64 60 58 60 61 57 53 51 51 49 46 46 46 46 46 46 45 46 49 51 52 54 57 61 65 69 74 77 79 80 81 82 80 80 81 81 80 80 80 79 78 78 77 77 79 78 78 79 76 74 78 79 78 79 79 78 77 76 73 68 68 69 67 61 61 67 69 66 73 78
61 65 67 67 69 71 72 72 70 70 69 66 66 65 64 65 62 58 60 62 60 55 52 50 47 45 45 46 47 46 45 44 44 45 47 50 51 52 54 56 58 64 69 72 74 76 78 79 79 80 82 82 79 79 79 77 77 77 77 79 81 79 80 79 77 81 84 82 81 83 82 78 76 74 70 72 78 77 70 65 67 65 61 69 75
60 63 64 64 67 69 70 70 69 69 68 66 65 64 64 64 63 59 57 59 60 58 55 52 48 45 44 44 45 46 45 45 44 45 47 49 50 52 55 55 54 57 62 66 69 71 72 74 76 77 79 79 78 77 77 74 74 77 77 77 79 80 81 83 83 84 87 87 84 83 83 80 80 81 75 71 74 78 77 74 74 71 64 68 75
60 62 63 64 66 68 68 68 68 68 68 66 65 64 63 63 63 61 57 56 57 57 57 53 48 47 45 44 44 45 45 45 45 45 46 50 51 51 55 58 59 59 59 63 69 71 72 72 72 72 71 69 70 73 74 72 70 72 74 75 78 81 80 83 87 87 86 87 84 81 81 80 81 82 74 65 65 74 81 79 79 79 71 68 74
61 62 63 64 67 67 66 67 70 69 68 68 66 65 65 63 62 62 60 58 56 56 56 53 49 48 48 48 47 46 47 46 46 45 46 48 50 50 52 57 62 64 61 61 65 69 71 73 72 73 69 60 58 63 67 69 70 70 70 71 75 81 81 81 85 86 84 82 81 79 81 82 82 82 77 72 73 78 83 81 81 83 78 70 69
59 62 63 65 67 68 67 67 70 71 69 69 67 66 66 65 63 63 62 60 59 58 57 57 55 53 51 51 50 51 51 49 47 46 45 46 48 50 52 54 59 65 64 63 64 63 63 68 72 73 66 56 53 55 59 62 66 71 72 68 68 77 83 84 85 86 84 82 81 81 82 80 79 80 79 78 77 76 77 81 83 86 86 79 72
60 58 61 64 66 68 68 66 69 71 69 67 67 67 68 68 67 64 62 61 60 60 59 60 59 57 55 54 53 54 55 52 48 45 45 45 46 49 52 52 54 59 61 63 65 64 61 62 64 63 57 53 53 54 56 58 59 62 69 70 69 76 85 85 84 85 84 82 79 77 76 72 70 72 75 76 76 75 78 83 84 86 87 84 79
72 60 59 63 66 67 66 64 67 70 68 66 66 66 68 71 70 66 64 63 61 60 60 61 61 61 60 59 57 58 56 51 46 44 44 46 48 50 52 52 52 54 58 62 63 64 65 63 60 58 52 49 51 53 54 57 56 53 56 63 67 73 82 85 84 84 83 80 77 75 73 72 71 71 71 72 75 77 80 84 84 84 85 81 79
86 74 67 65 64 64 64 65 67 67 67 67 67 67 68 71 71 70 69 67 65 64 63 63 61 61 63 63 61 61 57 50 44 43 43 45 47 51 56 59 60 60 61 63 61 64 69 69 68 67 58 48 50 55 55 54 55 54 54 58 64 67 72 77 81 84 85 82 79 77 74 74 76 76 74 73 75 79 82 85 86 85 85 82 78
90 89 83 75 70 66 65 67 69 68 68 68 69 71 73 74 73 72 71 71 71 69 67 66 64 62 64 65 63 62 60 54 47 45 45 44 46 49 55 63 67 66 64 62 61 63 67 70 74 72 62 52 52 58 60 58 55 56 57 60 64 64 65 68 71 76 83 86 85 82 81 81 80 78 76 73 76 83 83 83 86 86 84 84 81
92 93 92 88 84 80 76 75 75 74 73 72 72 76 77 76 76 73 72 73 75 73 70 69 69 66 65 66 65 63 62 59 53 51 49 48 49 50 54 62 68 70 67 62 60 61 62 65 69 68 63 60 58 57 61 63 62 63 63 63 61 59 60 63 64 66 73 81 86 85 83 84 79 71 70 71 73 80 82 82 85 85 83 85 85
93 91 91 93 93 91 87 85 83 81 79 78 78 80 80 79 78 76 73 73 74 74 71 70 71 70 67 67 67 64 62 61 58 56 54 52 53 54 56 61 67 72 71 65 60 57 57 59 62 63 66 67 63 60 63 68 71 72 73 71 69 68 67 63 59 62 66 69 74 78 78 79 77 71 73 77 75 76 79 81 85 86 86 88 88
96 94 93 94 93 93 90 89 88 86 84 84 83 82 82 83 82 79 76 73 72 73 73 72 72 72 69 68 68 66 63 62 61 60 58 56 57 58 59 61 66 72 75 72 65 57 55 58 59 60 65 66 61 60 63 70 78 83 82 80 79 79 77 66 55 57 64 65 66 69 70 71 72 69 73 79 80 80 83 84 87 90 90 89 86
97 97 95 93 92 92 91 90 91 89 87 86 84 82 83 83 82 82 80 76 72 72 73 73 72 72 71 70 70 68 66 64 63 62 61 60 60 61 62 63 66 71 73 75 73 66 59 57 57 59 62 62 59 58 61 68 79 87 88 85 83 82 80 73 61 54 58 62 62 63 62 61 63 63 65 69 72 79 88 89 86 86 87 86 82
95 98 97 96 96 96 93 90 90 91 92 91 87 83 82 80 79 80 80 77 73 71 71 71 71 72 71 70 71 70 67 66 65 64 62 62 62 62 62 64 68 71 73 74 77 74 65 58 57 60 61 58 57 59 62 67 76 85 88 86 83 81 80 78 72 64 59 58 59 61 61 60 61 62 62 65 68 73 83 85 81 81 82 81 79
92 96 97 97 98 99 98 94 91 89 91 93 91 86 84 81 79 79 78 76 73 72 71 70 70 71 70 69 70 70 68 67 66 66 65 64 64 63 63 67 71 73 73 74 77 78 71 63 60 61 59 57 57 60 64 69 74 81 87 86 82 80 78 77 76 74 72 67 63 62 61 60 62 63 62 65 69 71 75 75 76 82 85 81 78
90 94 97 97 97 98 100 100 98 94 91 92 92 90 88 85 81 80 79 76 73 72 71 70 70 70 69 69 69 69 69 68 67 67 67 66 66 64 64 69 73 74 74 75 77 78 78 73 67 62 59 58 59 61 65 68 71 76 83 86 83 79 77 77 76 75 77 78 74 72 71 71 72 72 69 67 68 68 70 70 71 78 85 83 79
88 92 95 96 97 98 99 98 98 98 95 92 90 90 89 85 82 81 79 76 76 75 74 72 70 69 69 69 69 68 69 69 68 68 68 68 67 66 66 68 70 73 75 77 76 75 77 77 72 64 59 57 57 60 63 66 70 75 81 83 79 75 74 77 78 78 80 82 82 80 80 81 81 81 78 76 73 69 67 68 68 71 77 80 78
88 92 95 95 96 98 98 96 95 95 95 93 92 94 93 87 84 84 82 79 79 79 79 77 74 72 71 70 70 70 70 69 69 70 70 70 69 68 68 68 69 72 76 77 76 73 73 76 73 64 58 56 55 57 61 65 69 74 75 74 73 71 71 74 80 84 85 83 82 82 82 82 82 82 81 81 81 76 69 68 69 69 70 72 74
88 91 93 94 94 95 96 96 96 96 96 97 98 98 96 91 89 88 86 86 86 85 83 82 80 77 74 72 71 72 73 73 72 72 71 72 71 70 70 69 69 71 74 75 74 73 73 75 72 65 60 58 57 58 61 65 69 70 69 69 69 70 73 77 83 87 87 84 83 84 85 84 82 83 84 82 81 79 72 67 68 70 70 70 71
89 91 92 93 93 94 95 93 90 89 91 97 100 99 97 96 95 93 91 91 92 90 85 83 82 79 76 73 71 70 72 75 77 75 74 73 73 72 72 71 71 72 73 73 73 72 73 75 72 66 62 61 60 60 61 64 67 67 65 67 69 71 77 83 87 90 91 89 85 84 86 87 85 83 84 80 75 74 71 68 70 72 72 73 72
89 90 93 94 93 94 95 92 88 84 83 90 98 99 98 98 98 97 96 94 93 91 86 83 82 80 78 75 72 70 70 75 78 78 76 75 74 74 73 73 72 72 73 73 72 72 73 73 72 68 65 63 63 64 65 65 66 66 65 67 70 75 81 85 88 91 92 88 84 83 85 87 83 78 75 72 73 77 77 76 77 76 76 81 83
90 90 92 94 93 93 93 92 91 88 86 89 94 96 97 99 99 99 99 96 90 87 85 83 81 80 78 76 72 71 73 76 79 78 76 76 76 75 74 74 74 73 73 72 72 71 72 72 72 70 68 67 67 68 68 66 64 66 67 70 74 78 81 83 87 91 91 87 84 85 85 84 81 79 76 74 77 81 80 80 83 83 84 90 93
88 88 91 94 94 94 94 94 94 93 91 91 90 90 93 97 97 98 99 96 88 84 84 83 80 78 76 74 72 72 74 76 77 77 76 77 77 76 76 76 75 75 75 73 72 72 72 72 72 71 70 70 71 70 70 69 69 70 71 73 76 78 78 78 81 83 84 85 86 85 85 84 84 85 84 80 80 82 80 82 87 88 88 93 93
86 86 88 91 93 95 95 94 94 92 90 89 88 88 91 94 95 97 99 98 93 87 83 81 79 76 74 72 71 72 74 76 76 75 74 75 77 78 77 76 76 76 75 74 73 73 73 73 74 75 75 76 78 78 78 78 78 77 76 76 77 76 76 78 82 84 85 88 88 87 87 88 89 88 87 86 87 89 87 87 90 88 87 90 90
87 86 86 88 92 95 94 91 89 88 88 89 88 89 92 93 94 94 93 94 95 93 88 83 78 75 73 72 71 72 74 76 75 74 73 73 75 77 76 74 74 73 72 73 74 75 76 79 80 81 82 82 82 82 82 84 85 84 82 81 80 79 80 83 85 87 89 89 89 89 90 91 91 90 90 88 89 91 90 91 93 91 87 89 89
89 85 83 84 89 94 93 92 90 88 88 89 89 89 90 91 93 93 90 88 90 93 95 93 87 82 77 73 71 71 73 74 72 72 74 73 73 74 74 72 73 72 72 76 80 81 83 84 82 80 81 81 81 79 79 81 83 84 84 84 84 83 84 85 85 85 86 86 85 87 89 89 90 91 90 88 86 86 87 91 94 92 87 88 89
89 86 83 83 88 93 95 96 96 93 91 91 91 91 93 93 92 90 87 86 85 87 90 92 92 92 89 83 78 76 75 75 74 73 74 74 73 74 73 73 73 73 75 82 87 87 85 83 79 77 77 78 78 78 76 77 79 81 82 83 84 84 84 85 85 85 86 85 85 87 89 90 91 90 88 86 86 85 86 91 97 95 90 90 91
88 89 88 86 90 95 97 99 99 98 97 96 94 93 94 93 88 84 83 84 86 88 89 89 88 88 88 88 87 84 81 80 78 75 75 74 74 73 72 73 73 74 79 88 93 90 84 80 78 76 76 77 78 77 76 75 77 80 80 80 81 84 84 84 82 82 84 86 87 88 88 90 91 90 87 87 90 90 89 94 99 99 97 97 98
87 91 90 88 92 97 99 99 100 100 99 97 94 93 92 90 87 85 86 86 85 85 86 87 88 88 87 85 86 88 89 86 82 79 77 75 74 74 74 73 73 75 81 88 91 89 84 80 78 77 76 77 77 78 78 77 76 78 79 78 79 81 82 81 79 81 85 88 89 89 88 89 91 92 91 91 95 96 97 97 99 100 100 99 100
87 92 91 90 93 98 99 99 98 98 97 96 95 95 93 91 90 91 92 90 88 86 83 81 84 90 92 90 88 89 90 89 85 82 80 78 76 75 75 75 75 78 83 87 87 86 83 80 78 78 77 77 77 77 78 78 77 78 79 79 79 81 82 83 83 83 86 89 90 90 90 89 90 92 93 94 96 99 100 99 99 100 100 99 100
88 92 94 94 94 97 98 97 95 95 96 97 98 97 96 95 95 95 95 95 96 97 94 87 85 89 91 90 89 87 85 84 84 83 82 81 79 78 78 79 81 82 86 87 87 85 82 79 78 78 78 77 78 78 78 79 79 80 80 80 82 83 84 88 88 86 88 91 90 89 89 89 89 90 91 93 96 100 100 100 100 100 99 99 100
90 93 94 95 96 98 100 98 94 94 96 97 97 98 98 98 97 97 98 98 97 98 98 95 93 93 92 90 89 88 86 84 83 83 83 83 82 81 80 81 83 83 83 84 85 85 84 81 79 78 78 77 78 79 79 79 80 81 81 82 84 86 87 90 91 89 90 93 91 91 92 93 92 92 93 94 97 100 100 100 100 100 100 100 100
92 94 95 96 97 98 99 97 95 95 95 95 96 98 99 99 99 97 97 97 96 96 95 95 96 97 95 93 92 92 90 86 85 86 87 87 87 86 83 80 80 81 81 80 81 83 83 82 80 78 78 78 78 79 80 80 81 81 79 79 83 85 86 87 89 90 92 93 91 94 97 96 94 96 97 97 99 100 100 100 100 100 100 100 100
93 95 96 97 97 97 96 95 95 96 95 95 97 99 99 98 98 97 95 93 94 95 95 96 97 96 95 95 94 94 93 90 88 90 91 91 91 90 86 83 81 79 79 78 77 77 78 79 79 79 78 78 79 79 79 81 82 81 78 78 81 82 83 85 88 91 93 91 88 90 96 98 98 99 99 99 100 99 98 99 99 99 100 100 99
93 94 95 97 97 96 94 94 95 96 95 95 98 100 100 97 95 94 92 91 91 92 93 94 94 94 94 95 95 96 96 95 93 93 93 93 92 91 89 86 82 79 78 78 77 76 76 76 77 77 76 76 79 79 80 82 83 81 80 81 84 85 87 89 89 90 93 92 88 88 94 99 100 100 99 100 100 98 95 96 98 99 100 100 99
92 93 94 95 96 96 95 95 97 98 96 96 98 98 97 95 92 91 90 90 91 91 92 92 92 93 94 96 97 98 99 99 98 97 96 94 92 91 90 88 84 81 80 79 79 79 78 76 77 77 75 75 78 79 78 81 84 85 86 87 89 88 87 88 88 88 90 91 91 91 94 98 100 100 100 100 100 98 97 97 98 99 99 100 99
91 92 92 93 94 97 98 98 98 99 97 96 98 98 96 95 94 93 91 91 91 91 91 92 92 93 95 97 99 99 100 100 99 99 99 96 93 90 89 87 85 83 82 81 82 83 82 80 80 80 79 78 79 80 81 82 86 89 91 92 91 90 87 86 88 89 89 90 93 95 97 99 100 100 100 99 97 97 98 99 99 99 100 100 98
93 92 92 93 95 98 100 99 98 99 98 97 98 98 97 97 97 96 95 94 93 92 91 91 92 93 94 97 98 98 98 98 98 98 98 97 95 92 90 89 87 86 86 86 87 88 88 87 86 85 85 83 82 83 85 87 88 93 96 96 95 94 92 89 89 89 89 91 95 98 100 100 100 100 99 98 96 96 98 100 100 99 100 100 99
93 93 94 96 97 99 100 99 99 100 100 100 100 99 98 99 98 97 96 96 96 96 95 93 93 93 93 95 97 96 96 97 97 96 95 95 95 95 95 95 94 93 92 92 91 89 89 90 90 90 89 88 86 87 89 90 93 97 98 95 93 93 95 95 94 92 92 95 98 99 100 100 100 99 100 99 98 98 99 100 100 100 99 100 99
94 95 97 99 100 99 100 100 100 100 100 100 100 99 99 100 99 98 98 97 98 98 98 96 95 95 94 94 94 94 94 96 97 97 96 97 98 99 99 99 99 99 97 97 96 94 93 92 91 91 91 91 90 90 90 92 96 99 97 95 94 94 96 97 97 95 96 98 100 100 100 100 99 100 100 100 99 99 99 100 100 99 98 99 99
97 99 100 100 100 99 99 100 100 100 100 100 100 100 100 100 100 100 100 99 100 100 99 98 98 98 96 96 96 96 96 98 99 99 99 99 100 100 100 100 100 100 100 100 99 99 98 97 97 96 96 96 95 95 94 95 97 97 96 96 97 97 96 98 98 98 99 100 100 100 100 100 99 100 100 100 99 99 100 100 100 99 99 99 98
99 100 99 99 99 99 100 100 100 100 100 100 100 100 100 100 100 100 100 100 100 100 100 99 100 99 99 99 100 99 99 100 100 100 100 100 100 100 100 100 100 100 100 100 100 100 100 100 100 99 99 99 99 99 99 99 100 99 98 96 95 94 96 99 100 100 99 100 100 100 100 100 100 100 100 100 100 100 100 100 100 99 99 97 95
101 100 99 98 98 99 100 100 100 100 100 100 100 100 100 100 100 100 100 100 100 100 100 100 100 100 100 100 100 100 100 100 100 100 100 100 100 100 100 100 100 100 99 100 100 100 100 100 100 100 100 100 100 100 100 100 100 100 99 98 96 96 98 100 100 100 100 100 100 100 100 100 100 100 100 100 100 100 100 100 99 98 95 93 92
100 99 98 98 98 98 99 100 100 99 100 100 100 100 100 100 100 100 100 100 100 100 100 100 99 99 100 100 99 99 100 99 99 99 100 100 100 100 100 99 100 100 100 100 100 100 100 100 100 100 100 100 100 100 100 100 100 99 100 100 99 99 100 100 99 99 99 99 99 99 99 99 99 99 99 99 99 98 97 95 92 91 88 87 86
99 98 99 99 97 97 98 99 99 99 100 100 100 100 100 100 100 100 100 100 100 100 99 100 100 100 99 99 99 99 99 99 99 99 99 100 100 99 100 100 100 100 100 100 100 100 100 100 100 100 100 100 100 100 99 100 100 99 99 100 100 99 100 100 100 100 100 99 98 97 96 96 96 96 96 96 94 92 91 89 88 88 87 86 85
99 99 98 98 97 96 97 98 98 98 99 100 100 100 100 100 100 100 100 100 100 100 100 100 100 100 100 100 100 100 99 99 100 100 99 100 100 99 99 100 100 100 100 100 99 100 100 99 99 100 99 99 100 100 100 100 100 100 100 100 100 100 100 100 99 99 98 96 94 92 91 91 92 93 92 91 89 88 88 89 89 88 88 87 86
99 98 97 97 96 95 95 97 97 98 99 100 100 100 100 100 100 100 100 100 100 100 100 100 100 100 100 100 100 100 100 100 100 100 99 99 100 99 99 99 97 97 97 96 96 96 96 96 97 98 99 99 99 99 99 98 98 98 98 99 99 99 99 98 97 95 93 91 90 89 88 88 89 90 89 87 85 84 83 83 82 82 82 82 82
Wind_Speed
27 29 30 29 31 34 36 36 36 35 34 34 33 33 32 31 30 28 27 27 26 24 22 21 20 19 18 17 16 15 15 15 15 15 15 15 15 14 14 15 16 15 14 12 11 10 10 10 10 9 8 8 7 7 7 8 7 6 6 6 6 6 5 4 6 8 8 9 11 11 11 13 12 13 15 14 13 15 15 15 15 14 12 9 8
27 28 30 30 31 33 32 33 35 35 32 31 33 33 32 33 31 29 28 27 27 26 25 23 22 21 20 20 19 18 17 16 16 16 16 16 16 15 15 16 16 16 16 15 14 13 12 12 12 11 10 9 8 8 8 8 8 7 7 6 6 6 6 6 6 8 9 10 10 10 11 12 11 12 14 15 14 15 15 15 14 12 11 9 7
25 29 32 32 32 31 29 30 32 33 31 29 30 31 31 32 33 31 29 27 27 28 26 25 24 22 21 21 21 20 19 18 18 18 17 17 17 16 16 16 17 17 17 17 15 14 14 13 12 11 11 11 10 9 8 8 8 8 8 7 7 7 7 7 7 8 10 11 10 9 9 10 11 12 15 15 15 15 15 14 13 11 10 8 7
22 26 30 31 29 27 27 27 28 29 29 28 29 29 27 28 31 32 29 26 27 28 28 26 25 23 22 22 22 22 21 20 20 20 20 19 18 18 17 18 18 17 17 17 16 15 15 14 13 12 11 12 11 10 10 10 9 9 9 9 9 8 8 9 10 10 10 11 11 10 11 12 13 13 15 15 13 15 15 13 12 12 11 9 7
24 24 27 27 25 25 26 26 25 27 28 27 27 28 26 24 28 32 29 26 27 28 28 28 27 26 25 24 24 23 23 22 22 21 21 21 21 20 20 19 19 19 19 19 18 17 17 16 14 13 13 13 13 12 11 12 11 10 10 9 9 9 10 11 11 11 10 11 11 11 12 14 14 14 15 13 12 12 13 12 12 13 13 10 7
26 24 24 24 24 24 25 25 26 26 28 27 26 26 26 24 26 31 32 30 29 29 29 29 29 29 29 27 26 26 25 24 24 24 23 22 23 22 22 22 21 21 21 20 20 20 19 18 17 16 16 15 14 13 13 14 13 12 12 11 10 10 10 11 11 11 10 11 11 11 11 12 12 12 13 14 14 12 10 10 10 11 13 11 8
23 23 23 23 23 24 24 26 26 26 27 29 28 26 27 27 27 30 32 33 32 31 30 31 32 32 31 30 29 28 27 26 26 26 25 24 25 24 23 23 23 23 23 22 21 20 20 19 19 18 18 18 17 15 15 15 14 14 14 13 11 11 10 10 10 10 10 10 10 10 10 11 11 12 13 16 15 11 7 7 8 9 12 12 10
21 22 23 24 24 26 27 25 25 27 29 30 31 29 28 28 29 30 31 33 33 33 32 33 33 33 33 32 32 31 30 29 29 28 28 27 27 26 26 25 24 23 24 24 22 21 21 20 19 19 20 20 19 17 16 16 15 15 15 14 13 12 11 10 9 10 10 10 10 10 10 10 11 11 12 12 10 7 6 8 8 7 8 11 12
23 23 23 25 28 29 29 26 25 29 32 32 34 33 30 30 31 31 32 33 33 32 31 31 32 33 34 34 34 33 32 32 32 32 31 30 29 28 27 27 26 24 24 24 24 24 23 22 20 20 21 21 20 18 18 17 17 16 15 16 15 14 12 10 10 9 9 10 10 10 10 10 9 9 9 8 7 8 9 10 8 7 6 8 9
21 25 24 26 29 30 31 32 30 30 34 36 37 36 33 32 32 34 35 35 33 33 32 31 30 31 33 34 34 33 33 34 35 35 34 33 32 30 30 29 28 27 26 25 25 25 25 24 23 23 23 22 21 20 19 19 19 18 18 17 17 15 13 11 11 10 10 10 10 10 10 10 9 9 9 8 8 9 9 9 8 7 7 7 6
12 22 25 25 27 28 32 36 34 33 35 38 38 37 35 32 32 35 36 34 35 35 34 33 31 29 30 32 33 33 35 36 38 38 37 35 34 32 32 31 30 29 28 27 26 25 25 25 25 25 25 24 22 21 20 19 19 20 20 20 19 18 15 13 12 12 11 11 11 10 10 11 11 11 11 9 8 8 8 8 8 8 8 8 7
6 12 18 22 25 29 32 33 34 35 36 37 37 37 36 33 32 33 32 32 34 34 33 33 34 31 28 29 30 32 35 38 39 38 38 38 36 35 32 30 28 28 28 27 27 26 24 23 23 24 26 25 24 22 21 20 20 20 20 20 20 20 20 18 17 14 12 12 12 12 12 12 12 12 11 9 8 9 9 9 9 8 8 9 9
6 7 10 14 19 26 29 30 32 33 34 35 35 33 32 31 31 31 30 29 29 31 31 32 35 34 30 28 29 30 32 37 39 39 38 38 37 36 34 30 26 26 27 28 28 27 25 24 23 24 27 28 25 24 23 22 21 20 20 20 21 21 21 21 21 20 18 15 14 14 14 14 14 14 13 12 12 10 10 10 10 9 9 10 10
6 6 7 7 9 13 18 21 23 26 29 31 31 29 28 29 29 28 26 25 26 30 32 30 31 34 33 31 31 30 30 34 38 38 38 38 37 36 36 32 27 26 28 29 29 28 28 27 26 27 28 29 28 26 25 24 23 21 20 20 21 21 21 20 21 22 22 21 20 20 18 17 18 20 18 17 16 14 12 12 11 11 11 11 12
6 4 5 5 5 6 8 11 14 17 20 24 25 26 26 27 28 26 24 23 25 30 32 28 27 31 33 32 31 30 31 34 37 38 38 37 36 36 36 34 30 26 28 31 32 31 30 29 29 29 28 28 29 28 25 24 23 22 21 20 20 20 21 21 20 20 21 23 23 23 22 20 20 21 18 16 16 16 15 14 13 13 12 12 12
9 8 7 6 6 6 7 9 12 15 16 18 20 23 24 26 28 27 25 23 23 24 27 27 27 29 31 31 30 30 32 35 37 38 38 37 36 35 36 37 34 29 27 30 33 33 32 31 31 30 29 30 30 29 27 24 22 20 20 20 19 18 19 21 21 19 19 20 21 21 20 19 19 18 16 15 15 15 14 12 12 12 11 10 10
12 13 11 10 9 8 7 9 11 14 16 18 20 21 22 24 25 25 24 24 23 23 23 25 27 28 29 29 30 31 34 37 38 39 39 37 36 36 36 37 37 33 30 29 31 33 34 34 33 32 31 31 31 30 28 26 24 21 19 19 18 18 18 19 20 20 19 19 19 19 18 18 17 17 16 16 16 16 13 12 11 11 10 9 9
14 16 15 12 10 8 7 8 9 12 14 18 21 22 22 23 23 23 23 24 25 25 24 24 25 26 27 29 31 33 35 37 39 40 40 38 37 37 38 38 37 35 33 31 30 32 35 36 34 33 33 32 31 30 29 27 27 24 21 19 19 19 18 17 17 18 19 19 19 18 18 18 17 16 15 14 15 16 16 16 14 12 11 10 10
15 16 15 13 11 10 9 8 8 9 12 15 20 23 23 23 23 23 24 25 25 26 25 24 24 25 27 29 31 33 34 36 37 38 39 39 37 38 38 37 35 33 32 31 29 31 34 37 36 36 35 33 32 31 30 29 29 28 23 20 20 21 19 17 16 16 16 18 19 19 19 18 17 16 16 15 14 15 16 17 16 13 13 12 11
16 14 14 13 13 12 11 10 8 8 10 13 18 22 23 23 23 23 24 25 25 26 26 26 26 26 26 27 29 32 33 34 36 38 39 38 37 38 39 37 35 34 32 30 28 28 30 34 36 37 37 35 33 32 31 31 31 30 26 22 22 23 20 17 17 18 17 17 18 18 18 18 18 17 17 17 17 16 15 15 16 16 16 14 12
18 15 14 14 14 14 13 12 10 9 10 12 16 20 22 23 23 23 24 23 24 25 25 26 27 28 27 26 27 29 31 33 35 36 38 38 37 38 39 39 37 34 31 29 28 27 27 29 34 37 38 36 34 33 33 33 33 32 31 29 28 27 24 21 20 20 19 18 17 17 18 18 17 16 16 16 17 17 17 16 16 17 17 16 14
18 16 14 14 14 14 14 14 13 10 11 14 17 19 20 21 22 23 23 23 23 24 25 25 27 28 28 28 28 28 31 33 34 35 36 38 38 38 39 41 39 34 29 27 28 28 27 29 34 38 38 36 34 33 33 33 34 34 35 34 33 31 29 28 24 19 17 17 16 16 16 16 16 15 15 15 15 16 18 18 17 17 18 18 18
17 17 15 14 14 14 15 15 14 13 14 17 20 19 17 18 20 22 24 26 26 26 26 26 27 28 30 31 30 29 30 32 35 37 37 37 38 39 40 41 40 36 30 27 28 30 29 30 35 38 37 36 34 33 32 33 34 34 34 34 33 31 31 31 28 22 19 19 18 17 17 17 17 16 16 16 16 17 18 19 18 17 18 19 20
17 17 15 15 15 15 16 17 18 18 18 19 20 19 15 14 16 19 24 28 27 25 24 25 26 28 30 32 32 31 30 29 31 36 38 38 38 40 40 41 41 39 35 31 29 30 29 31 36 38 37 36 35 33 32 32 32 33 32 31 32 32 32 32 30 25 22 21 21 21 20 19 19 18 18 19 19 19 19 20 19 18 19 21 22
17 17 15 15 16 17 18 19 20 20 20 20 21 20 15 12 14 20 26 27 25 22 22 23 25 26 29 32 33 32 30 28 28 32 36 38 39 40 41 41 40 40 40 37 35 32 31 32 35 36 37 36 35 33 33 32 31 31 31 30 30 32 33 34 31 26 23 22 22 22 21 21 22 23 23 23 22 21 21 21 20 20 20 20 21
16 17 16 14 15 17 20 21 19 19 19 20 21 21 18 16 17 21 25 26 23 22 23 23 24 25 28 32 33 30 27 26 25 27 31 35 38 39 40 40 40 40 40 41 41 39 36 35 35 36 37 36 35 34 34 33 32 30 30 30 32 33 34 34 32 28 25 23 22 22 22 22 22 23 23 24 23 22 22 21 20 20 20 17 17
16 16 16 15 15 16 19 20 19 17 17 19 19 20 20 20 20 20 22 24 23 23 23 24 25 27 28 30 31 29 27 25 24 24 26 30 35 38 38 38 38 39 41 44 45 43 41 39 38 37 36 36 36 36 35 34 33 32 32 33 34 34 35 35 34 34 32 29 25 23 22 21 20 20 21 24 23 22 23 22 19 18 18 17 18
16 16 16 16 16 15 16 19 19 16 16 16 17 18 18 19 21 21 22 23 22 22 23 25 27 29 29 28 28 27 26 25 25 26 24 23 25 31 35 37 38 40 43 45 44 44 43 41 38 37 37 34 32 33 33 33 34 35 35 34 34 35 36 34 33 33 32 29 25 23 21 19 19 20 20 20 20 19 19 20 19 18 18 18 19
16 16 16 16 16 15 15 17 17 16 16 16 17 19 19 19 20 23 26 25 24 24 25 27 27 28 28 27 27 26 24 25 28 30 28 25 24 26 31 37 40 42 43 43 42 42 42 38 32 30 30 28 26 26 27 27 29 30 31 32 33 33 34 34 34 33 31 29 27 26 23 20 19 19 18 17 18 17 16 17 17 18 19 20 21
16 15 15 16 16 16 16 17 17 17 17 16 16 19 22 21 22 25 29 30 29 29 31 33 33 31 29 29 29 28 27 27 27 26 26 29 30 31 32 36 37 39 40 38 35 32 32 30 27 26 25 24 24 25 24 23 24 25 26 29 31 30 30 32 33 33 32 33 33 31 27 23 21 19 18 19 19 18 18 19 18 18 21 22 22
17 15 14 16 17 17 18 18 19 19 18 17 17 19 23 25 26 29 31 31 30 31 32 36 38 38 38 37 36 33 31 29 28 26 26 28 30 32 35 36 37 38 37 31 27 25 23 24 26 26 26 24 24 25 25 24 23 23 23 25 29 31 30 29 30 32 32 34 35 34 30 25 22 20 20 20 20 19 20 21 19 19 23 24 22
18 16 15 16 18 19 19 19 21 22 21 20 19 19 21 24 27 29 29 27 26 27 29 33 36 38 40 42 43 42 39 34 30 30 30 30 30 32 33 34 36 37 32 26 26 28 27 25 24 24 24 24 24 24 24 24 24 23 23 23 25 28 30 31 33 35 35 33 32 33 33 29 24 21 21 23 23 21 21 22 20 19 21 23 20
19 18 17 18 19 21 22 22 22 23 23 22 20 18 19 21 22 25 29 30 30 30 31 32 32 32 34 37 41 45 45 40 35 32 31 31 32 33 32 31 33 34 30 28 29 30 27 24 24 23 22 22 22 22 24 25 24 23 23 25 25 25 28 34 36 36 35 33 30 30 33 32 27 22 21 24 24 22 22 24 22 19 19 19 19
21 20 20 19 21 23 24 23 23 24 24 23 21 20 21 22 22 23 26 29 30 31 32 33 31 29 29 30 32 36 40 40 38 36 34 33 32 32 31 31 31 32 31 30 31 28 23 22 24 23 22 22 22 22 23 25 24 24 24 25 25 23 23 29 33 34 34 31 27 27 28 28 26 23 22 24 25 22 21 23 22 20 21 21 19
22 21 20 19 20 22 23 23 23 24 25 25 23 22 22 25 26 25 24 24 24 26 31 34 34 31 31 31 30 30 32 34 35 36 36 36 32 29 28 29 29 29 31 32 32 29 25 23 24 24 24 25 24 23 24 24 24 25 25 24 23 22 22 24 29 32 31 26 25 27 26 25 25 25 23 24 25 22 21 23 23 23 24 24 21
21 20 19 18 19 21 22 23 24 24 24 25 26 25 24 24 26 26 25 25 24 24 26 30 32 32 33 33 31 30 30 30 32 33 35 37 34 29 28 29 28 28 31 36 37 34 28 26 26 26 25 26 26 25 25 25 24 26 28 26 24 24 23 24 26 28 27 24 24 25 25 23 24 25 24 24 24 22 21 23 24 25 25 23 20
21 19 18 18 19 20 21 23 23 23 24 26 27 27 26 25 25 24 24 23 24 24 24 25 26 27 29 29 29 28 27 28 28 28 30 33 33 31 32 31 28 26 31 37 39 36 32 31 31 28 26 27 28 27 27 27 27 29 32 33 31 29 28 27 27 25 24 23 23 24 24 24 24 25 24 23 22 20 20 20 21 23 25 24 20
22 20 20 20 20 21 22 24 24 24 25 26 24 24 24 25 24 23 22 22 23 23 22 21 22 23 23 24 24 23 22 24 24 24 25 28 30 33 35 33 28 27 30 35 40 42 41 38 36 34 32 30 29 29 29 27 28 32 36 36 36 35 33 30 28 25 23 23 24 25 24 23 22 23 24 22 20 19 20 20 18 18 20 21 20
21 21 22 22 22 23 24 24 24 25 25 23 20 19 20 22 23 22 21 20 21 21 20 20 21 21 20 20 21 18 17 19 21 23 25 27 30 34 36 34 30 28 29 30 34 41 44 41 39 40 41 38 33 33 32 29 28 33 36 33 30 29 28 26 25 25 25 25 27 27 25 22 21 21 22 21 21 20 20 19 18 18 17 17 17
20 20 20 21 22 23 23 23 22 22 23 22 19 17 17 19 22 22 21 19 18 19 20 21 21 20 19 18 19 17 15 17 19 21 23 26 30 33 34 32 29 27 27 26 27 33 38 40 39 41 44 43 39 38 38 35 31 30 31 29 26 24 24 24 24 26 27 28 29 29 27 23 20 18 20 23 24 24 22 21 22 23 21 18 18
20 20 21 22 23 21 20 20 20 20 21 22 20 17 17 18 20 22 23 20 17 18 20 21 21 21 20 19 19 18 17 17 17 18 19 21 25 29 32 33 31 30 28 25 23 25 29 32 34 35 37 39 40 40 39 38 34 29 26 24 22 22 23 23 24 25 27 28 29 29 26 22 20 20 22 26 29 30 29 26 25 25 23 21 23
21 21 22 22 21 19 18 18 18 18 19 20 19 18 18 19 20 23 24 21 18 19 21 22 22 22 22 20 19 20 21 20 19 18 17 17 18 22 26 30 31 31 29 26 24 24 25 25 27 29 30 32 36 37 36 36 35 29 23 21 21 23 24 25 25 26 27 28 28 26 23 22 23 24 26 29 32 33 31 27 25 24 22 23 27
21 23 22 21 19 18 18 17 17 17 17 17 17 18 19 19 21 23 24 23 20 19 21 24 24 24 24 23 20 20 22 22 21 19 18 18 18 19 20 21 23 25 26 27 27 29 28 27 27 28 28 29 32 33 33 32 29 25 24 27 31 32 31 29 28 28 28 28 27 25 23 23 25 27 29 31 33 32 27 23 23 24 25 26 29
21 21 20 19 19 20 18 17 17 18 17 15 16 17 19 20 22 24 24 23 20 19 21 24 25 25 26 25 23 23 23 23 21 19 17 17 18 18 19 18 19 20 22 24 25 26 28 28 29 30 30 30 31 32 32 32 29 27 29 32 34 35 34 34 33 30 28 27 27 26 25 25 26 28 30 32 33 31 26 23 24 26 27 27 28
18 17 16 16 18 18 16 15 15 16 16 14 14 15 16 17 20 22 22 21 20 20 22 24 24 24 24 23 22 21 20 18 16 14 14 13 13 13 14 15 15 16 17 17 18 19 21 23 25 27 28 29 29 30 31 30 29 29 30 31 31 33 36 37 35 31 28 27 27 26 26 26 27 28 29 31 32 31 27 23 23 25 25 25 26
16 15 15 16 16 15 14 14 14 14 14 13 13 13 13 14 15 16 16 16 16 16 18 19 20 18 15 13 13 13 12 12 11 9 9 8 8 8 9 9 9 9 9 10 11 13 14 16 18 19 21 22 23 23 23 23 23 24 27 29 33 36 37 36 34 32 30 29 27 25 25 25 26 27 28 28 29 28 24 19 20 22 24 23 23
14 14 14 14 13 12 12 13 13 13 13 12 12 12 12 11 10 10 10 10 9 8 9 9 9 9 7 7 7 8 8 8 8 7 6 6 5 5 5 4 3 3 2 3 4 5 6 8 9 10 12 14 14 14 14 14 15 17 20 25 30 31 31 30 29 27 26 24 22 22 24 24 24 24 24 25 25 24 20 18 19 20 22 21 21
12 13 13 12 11 11 11 11 12 12 12 11 10 9 9 7 6 5 5 5 3 3 1 1 2 4 5 7 8 9 9 9 9 9 9 9 9 8 7 7 7 6 6 6 5 5 5 4 5 5 6 7 6 6 7 9 11 14 17 19 21 22 22 22 22 21 20 20 20 22 24 25 24 23 23 24 23 22 21 20 20 20 21 21 21
11 11 10 9 9 10 10 10 10 11 10 9 8 6 5 3 2 2 2 2 2 2 3 4 5 5 6 8 10 11 11 11 12 12 12 13 13 13 13 14 14 14 14 14 13 12 12 10 9 8 7 6 6 6 6 8 10 12 13 14 14 16 17 18 18 18 18 18 19 21 23 24 25 26 26 26 25 24 24 23 22 21 22 21 21
8 7 7 7 7 7 7 7 8 9 8 7 5 3 2 2 3 3 3 4 5 6 6 6 7 7 8 9 11 12 13 14 15 16 16 16 17 17 19 20 21 21 22 22 21 21 20 19 18 17 16 15 15 14 13 12 11 10 11 11 13 15 17 17 18 18 18 19 21 23 24 26 28 29 29 30 30 29 29 28 26 26 25 24 22
3 3 3 4 4 5 5 5 5 6 6 4 3 2 4 5 6 6 7 8 9 10 10 11 12 12 13 14 15 16 17 17 17 17 18 19 21 23 26 28 29 29 30 30 30 30 30 29 29 28 28 27 26 25 23 21 18 16 15 15 15 17 19 21 21 22 23 24 25 27 29 31 31 31 32 32 33 33 32 31 30 30 29 27 24
Wind_Direction
202 205 206 207 212 216 219 221 223 225 227 230 232 233 235 236 237 237 237 238 239 241 244 247 249 252 252 250 246 245 244 240 237 238 240 243 245 244 244 244 242 242 245 248 250 252 251 246 244 249 253 250 245 244 245 248 251 253 252 248 249 258 258 252 274 291 294 302 312 316 322 329 333 340 346 345 343 353 3 6 5 4 5 11 2
203 205 206 207 211 215 217 219 222 223 224 227 230 232 234 237 237 236 238 238 239 240 243 246 249 252 252 252 252 251 252 251 246 244 245 247 248 248 248 249 245 241 243 247 249 253 255 251 246 249 255 255 251 248 247 248 250 252 254 253 252 257 262 261 270 288 296 301 309 312 318 326 327 329 339 342 341 351 2 4 4 2 1 7 358
205 207 209 211 213 213 213 215 219 221 220 222 226 229 232 236 237 237 238 237 239 240 241 244 248 251 251 252 253 254 256 256 252 250 250 250 250 249 249 251 249 244 243 244 245 246 250 251 247 245 250 254 253 251 249 250 251 254 254 253 255 257 262 267 266 278 293 300 304 309 314 318 319 324 334 339 341 351 359 1 1 360 358 0 356
209 209 211 212 211 211 211 213 215 216 217 220 224 225 227 231 236 238 236 235 238 240 240 242 245 248 249 251 253 255 256 256 254 252 252 252 253 252 252 254 253 249 246 244 244 243 244 246 246 243 246 251 253 252 251 253 254 254 253 252 255 255 256 265 268 269 281 292 298 304 308 310 313 321 330 335 340 346 353 359 1 0 359 357 351
210 209 211 210 209 210 211 212 213 213 215 218 222 223 222 224 232 237 235 232 236 240 239 240 241 242 245 248 251 253 255 256 255 254 254 254 254 254 254 256 256 255 253 251 250 249 248 247 247 245 246 250 253 251 251 255 256 254 252 250 252 253 254 261 266 265 267 279 291 297 303 308 311 317 324 331 335 337 342 352 358 2 4 2 352
210 210 209 209 210 211 212 212 213 214 216 218 220 221 221 221 227 234 236 233 235 237 238 239 239 239 242 244 247 250 252 254 255 255 254 254 255 254 254 256 259 258 257 256 254 253 253 252 252 251 250 250 251 250 251 256 256 253 252 252 251 253 254 256 259 260 260 268 282 290 295 301 303 308 315 322 326 326 328 337 347 357 3 3 357
205 206 207 208 211 213 213 214 214 214 217 220 220 219 221 221 223 230 235 235 235 235 236 238 240 241 242 244 245 247 249 250 252 254 254 253 254 254 253 253 257 259 259 258 256 254 253 254 255 255 255 256 254 252 253 255 256 254 254 255 253 252 252 251 251 254 258 264 274 281 285 291 294 296 305 315 322 324 321 327 332 342 357 0 354
200 203 204 205 210 214 216 215 215 217 219 221 223 222 222 223 224 227 231 234 234 234 235 237 240 241 243 244 246 246 247 248 249 251 252 251 251 252 252 252 252 255 259 260 259 256 254 253 252 252 255 259 259 256 254 254 255 257 258 257 254 250 249 249 248 251 256 262 269 273 277 282 285 289 298 309 316 312 308 317 317 318 342 356 351
205 206 205 207 211 215 216 215 216 221 223 225 227 227 225 226 227 228 230 232 233 234 234 235 237 239 241 243 245 245 246 246 247 248 249 249 249 249 249 251 250 251 254 258 259 260 259 256 252 250 254 259 262 260 258 256 255 256 257 260 258 253 248 248 249 250 254 258 262 266 269 273 277 282 288 290 294 301 306 310 309 304 316 339 346
213 210 210 212 215 216 218 220 221 224 226 228 230 230 229 229 229 231 232 233 233 234 234 233 234 236 239 241 242 242 243 245 247 249 249 248 248 247 247 250 251 250 251 254 256 258 259 259 257 256 259 261 262 261 260 258 257 255 254 256 257 253 247 246 247 247 250 255 258 261 265 270 274 276 279 280 286 295 301 301 302 305 309 315 329
231 217 216 216 216 217 221 223 224 227 230 231 231 231 230 228 230 233 233 232 233 233 233 233 232 232 233 236 238 238 241 245 248 250 250 249 248 246 247 250 251 251 250 250 253 254 255 258 260 261 262 263 262 261 262 261 260 258 256 255 255 252 246 243 245 246 248 253 256 257 261 265 269 271 275 278 282 288 291 292 295 299 304 310 313
275 234 228 223 221 223 224 223 224 227 230 230 230 231 230 227 229 231 231 231 232 232 230 231 233 230 229 231 233 234 239 245 249 250 250 250 248 246 245 246 246 247 247 247 250 251 251 252 254 256 260 262 261 260 262 263 262 261 260 258 257 255 251 247 247 247 247 251 254 254 257 262 266 266 267 273 281 288 289 286 285 286 288 296 300
310 273 250 233 228 228 226 224 224 226 228 229 230 230 229 228 229 229 228 228 229 230 230 230 233 232 228 228 230 231 236 244 249 250 250 250 249 246 243 242 241 241 243 246 247 248 248 248 248 251 258 262 261 258 259 261 263 263 263 261 258 256 255 252 251 250 248 250 253 253 252 256 262 264 267 276 284 285 285 284 284 283 280 282 287
326 298 278 256 243 234 229 227 226 226 227 228 229 228 226 228 229 229 228 224 223 228 231 230 232 234 232 230 232 233 235 241 247 250 250 250 250 247 243 241 240 240 242 245 247 247 248 249 249 252 257 260 261 260 257 258 260 262 262 263 261 259 258 255 254 253 251 249 249 253 254 255 262 271 275 280 282 279 278 281 282 283 280 279 282
353 337 305 292 290 268 248 240 236 234 232 229 228 226 225 227 228 228 228 225 224 229 231 228 229 234 235 234 235 237 237 241 245 248 250 250 249 247 245 241 240 240 243 246 248 249 250 250 252 253 254 256 259 260 257 255 256 257 258 260 260 260 258 256 255 253 252 252 251 253 257 258 264 272 275 275 278 279 280 281 279 279 278 276 280
3 10 360 348 336 310 280 260 250 247 242 235 232 229 226 226 227 227 228 229 231 232 230 227 227 232 235 234 234 238 241 243 244 246 249 250 246 244 243 242 240 239 241 245 248 251 251 250 251 253 253 255 258 260 258 254 251 251 252 254 254 254 254 257 259 256 252 255 256 256 258 260 263 269 269 266 269 274 280 282 274 269 267 263 269
356 358 358 358 349 329 305 286 270 261 253 246 242 238 234 232 231 228 226 229 233 233 231 230 229 230 232 232 232 237 242 245 245 246 248 247 243 240 240 241 240 239 240 243 246 250 251 250 250 251 252 255 257 260 260 255 249 245 245 248 249 248 249 254 261 262 257 257 260 262 264 265 266 268 268 266 267 265 265 265 259 255 254 252 258
347 346 347 347 342 330 314 299 286 278 270 260 253 248 243 241 240 235 231 230 232 233 234 234 233 232 231 230 232 236 242 246 247 247 248 246 241 239 238 238 238 239 240 242 242 246 250 252 251 250 251 254 256 257 258 255 249 244 242 243 246 246 246 246 251 260 262 264 265 265 266 267 267 267 267 268 269 264 256 254 256 253 250 250 254
341 339 337 334 332 329 322 311 295 286 284 276 266 257 250 246 245 242 239 237 237 237 237 236 235 234 233 232 234 237 241 246 248 248 249 246 241 238 237 235 234 236 238 239 240 243 248 251 252 250 250 253 254 255 255 253 249 245 241 240 243 246 246 244 242 245 251 260 266 268 269 271 269 268 268 266 265 262 256 257 257 248 243 249 253
335 334 329 326 326 324 319 318 314 303 298 290 277 266 256 247 245 244 242 243 243 242 240 239 238 238 236 235 236 237 238 243 246 248 249 246 242 239 235 232 232 233 234 235 236 238 242 247 250 251 252 252 253 254 253 252 250 247 242 237 240 245 248 246 246 246 244 249 258 263 266 269 267 265 266 266 264 261 257 257 254 245 241 246 250
332 330 325 326 330 326 317 314 313 307 302 293 277 264 254 246 242 242 241 242 243 243 243 243 244 244 241 238 237 237 238 241 244 246 248 247 243 238 234 233 233 233 231 232 234 237 239 242 247 251 252 253 252 252 251 251 250 248 244 242 245 250 253 252 253 255 253 249 251 255 257 259 257 253 254 257 258 259 260 258 255 249 243 242 245
327 326 324 325 327 323 314 310 306 295 286 279 268 258 251 245 241 238 238 239 239 240 242 244 246 247 247 245 243 240 240 243 244 245 246 247 245 240 236 235 235 232 229 230 233 236 237 239 245 250 252 253 253 252 251 251 250 249 249 250 253 256 258 257 256 255 253 250 249 249 249 249 249 245 242 241 242 249 259 262 259 254 248 244 246
321 321 321 320 317 310 305 303 300 289 281 276 268 258 251 249 246 240 237 238 239 237 236 238 243 248 249 249 248 245 243 244 245 245 245 246 246 243 240 239 236 231 228 230 234 236 236 238 244 249 252 253 254 253 252 252 250 251 253 254 257 258 259 258 255 252 251 251 250 249 247 246 248 245 241 241 242 247 257 264 264 259 252 248 248
319 317 317 315 310 305 302 303 303 298 292 286 276 264 253 254 261 254 244 240 241 242 241 237 239 245 248 249 249 247 245 243 244 246 247 245 245 245 243 241 238 233 230 232 235 237 236 238 244 250 252 253 254 254 254 253 252 253 255 255 256 257 255 253 252 250 249 250 251 252 249 247 247 244 244 250 255 257 261 265 264 260 253 250 249
316 315 314 311 308 306 305 306 308 307 303 294 286 279 269 261 260 257 251 245 240 241 245 242 239 242 245 245 246 246 244 241 240 244 248 247 246 246 245 244 240 235 233 234 237 238 239 241 246 251 254 255 255 253 252 253 253 253 255 255 254 252 250 249 248 247 246 247 249 249 247 247 252 256 258 262 262 260 261 262 260 257 254 249 248
310 309 309 307 306 306 306 306 308 310 306 297 289 286 282 268 250 241 242 245 242 238 240 242 241 242 244 244 244 243 240 237 236 240 245 247 246 246 245 245 243 239 237 238 241 241 242 243 246 250 253 254 253 251 250 252 253 253 252 251 249 247 245 245 244 242 242 243 244 244 245 249 256 260 262 263 261 257 258 257 253 251 246 239 239
304 304 305 303 300 299 300 302 304 304 300 294 287 282 278 272 261 243 234 238 243 240 239 240 240 240 242 244 245 243 238 235 235 235 236 240 243 243 242 242 241 239 237 239 241 241 242 244 246 248 251 252 251 251 252 252 251 250 247 245 244 243 243 244 243 243 243 242 242 244 247 249 251 253 257 260 259 257 256 253 245 242 238 232 234
297 299 300 298 294 292 293 295 295 293 289 286 283 279 274 271 269 261 247 242 243 242 242 242 241 241 242 243 244 243 238 234 233 232 228 229 234 238 239 240 239 237 236 237 238 239 241 243 244 245 246 246 246 246 246 245 244 244 244 243 242 243 244 243 241 242 243 241 242 245 247 245 244 245 249 253 251 248 249 247 241 236 232 229 231
292 295 297 296 291 288 285 285 285 285 283 282 280 277 272 268 269 269 264 258 254 252 251 250 247 246 247 247 246 242 236 232 234 235 233 231 230 233 237 240 239 239 241 239 236 236 236 236 236 238 238 236 236 236 237 236 237 237 239 240 240 240 240 238 238 238 239 239 239 241 241 239 239 241 242 245 245 244 241 238 236 232 228 228 232
289 291 295 295 291 287 284 283 283 282 281 282 284 284 280 277 273 272 271 268 265 263 262 260 258 255 253 252 250 247 242 242 244 244 241 239 239 240 244 246 245 245 246 240 232 230 232 232 230 232 232 229 228 229 230 229 228 228 230 233 234 234 233 234 235 236 237 239 240 239 239 239 238 237 237 242 246 245 239 235 232 229 228 229 232
284 287 291 293 290 287 285 284 284 284 283 283 286 288 289 287 285 282 279 277 275 273 270 267 265 261 257 254 253 253 253 254 256 255 252 250 249 249 250 252 252 251 246 236 228 229 232 231 230 231 230 228 227 226 227 228 226 224 223 226 230 231 230 230 232 234 236 239 240 239 239 238 236 235 236 238 239 238 236 235 232 229 229 229 230
277 280 285 288 287 286 284 282 282 284 286 286 285 285 287 290 291 291 289 286 283 281 279 276 273 267 261 256 253 253 255 258 260 259 258 256 255 255 255 255 256 252 242 227 226 233 233 229 230 230 227 227 226 224 225 227 227 225 223 223 226 226 226 230 235 237 237 237 237 238 239 237 234 233 234 232 232 232 231 230 228 226 226 227 227
271 274 279 284 285 283 282 281 279 279 281 283 284 285 284 285 288 293 296 295 291 288 286 283 282 278 271 263 256 252 251 253 256 258 258 258 256 256 257 257 257 251 236 219 221 228 228 226 230 231 227 227 227 224 224 228 229 228 226 227 226 225 229 236 239 238 237 236 235 237 239 238 234 232 230 228 228 230 229 228 227 225 224 225 227
270 271 275 279 281 280 279 278 277 277 278 280 283 285 284 284 285 290 295 298 298 296 291 287 286 288 286 279 270 261 255 252 253 254 255 257 257 256 254 252 250 245 235 223 221 224 224 226 230 230 229 230 229 225 225 228 230 230 230 232 231 227 229 237 239 236 235 235 236 236 237 237 233 230 229 228 228 228 228 227 225 222 221 223 224
270 270 271 273 274 276 276 277 278 279 280 281 283 283 282 283 283 284 285 289 293 296 295 290 289 292 294 291 287 281 274 266 261 257 254 253 253 250 245 241 238 236 231 226 225 225 225 226 228 230 231 232 230 228 227 228 229 231 232 233 232 229 227 230 235 235 233 231 232 235 235 235 233 231 230 228 226 223 224 225 223 221 221 221 221
267 268 270 271 272 272 273 275 279 281 280 281 283 283 282 281 280 280 280 279 280 282 286 288 291 294 294 292 290 290 287 280 272 264 256 251 247 242 235 230 229 229 228 228 228 227 226 227 229 231 232 233 232 231 231 230 230 233 235 235 232 230 228 229 232 234 233 229 230 232 231 230 230 230 230 229 227 225 225 224 224 224 222 220 219
265 267 269 270 271 270 270 274 278 280 280 280 281 280 280 278 275 275 276 276 275 275 277 282 287 291 291 290 289 288 286 282 276 267 257 248 243 238 234 230 226 225 227 229 229 228 227 229 230 230 231 233 234 234 234 233 233 237 240 241 239 236 236 235 233 231 229 229 231 231 230 230 230 228 227 229 228 227 226 225 225 226 225 223 220
266 269 269 268 270 270 271 274 278 278 277 276 274 274 275 274 271 271 271 272 274 275 275 277 279 281 283 286 287 283 277 272 269 262 251 242 236 232 232 230 226 226 229 231 232 231 231 232 232 232 233 234 234 235 235 234 234 239 242 244 243 242 242 240 236 231 228 230 234 233 230 230 229 224 223 225 225 225 226 226 223 223 223 220 217
270 271 270 270 271 271 272 274 276 275 273 270 266 266 270 272 271 270 268 268 271 272 273 273 272 272 274 279 281 274 261 253 251 248 243 238 234 231 229 227 226 228 230 230 231 233 234 234 234 236 237 238 237 238 238 235 235 241 243 242 241 241 240 236 233 231 230 232 235 234 229 227 225 221 219 221 224 226 228 225 220 220 217 210 207
273 273 272 272 272 272 273 274 274 272 269 266 263 261 262 266 270 270 267 265 268 271 272 271 268 265 267 270 270 263 246 235 234 235 234 234 234 232 229 226 226 228 230 230 230 232 234 235 237 239 241 241 240 241 243 242 240 240 241 238 237 239 240 237 233 232 232 232 233 232 230 226 223 218 216 221 226 229 228 223 221 222 217 203 203
274 274 275 275 274 272 273 274 273 270 266 264 265 266 265 266 269 271 270 268 268 271 272 271 268 266 264 263 263 262 254 246 242 238 234 233 235 235 235 234 233 232 233 233 231 231 233 235 238 240 243 243 243 244 245 244 241 237 236 238 242 245 245 242 238 236 236 235 233 232 229 224 219 215 216 223 230 232 230 227 227 227 219 204 206
276 276 277 277 275 274 274 275 272 269 267 268 268 269 270 270 272 273 273 271 270 273 274 273 272 271 268 263 262 264 262 259 257 254 248 243 242 241 242 243 241 239 238 238 237 236 236 237 239 241 243 244 246 246 244 244 243 239 235 240 250 254 251 245 241 238 237 236 233 228 223 221 221 222 223 227 231 232 230 229 228 226 218 207 207
277 278 277 276 276 278 277 275 272 268 268 270 272 273 275 275 275 276 277 276 275 274 274 273 273 272 270 267 264 263 262 259 258 256 252 248 246 244 244 243 241 240 242 244 243 242 242 242 243 245 247 247 248 248 246 245 244 237 229 233 242 248 248 245 241 237 234 232 229 224 218 219 224 225 225 227 230 230 229 225 218 215 214 210 205
278 278 277 276 279 282 279 274 271 270 270 271 273 275 277 277 276 277 278 279 278 275 273 272 272 270 266 262 258 257 258 257 254 251 246 243 242 241 241 242 242 242 245 246 245 244 244 245 247 249 251 251 250 249 247 246 243 238 237 239 241 244 246 245 242 236 229 223 220 219 217 219 222 222 221 223 227 228 227 220 211 208 209 206 199
275 275 276 277 279 280 277 273 272 274 274 273 273 273 274 275 275 275 276 277 278 275 272 271 273 271 265 255 247 244 245 244 242 238 234 231 232 233 234 236 239 241 243 244 244 243 243 244 246 248 249 250 251 250 250 248 245 243 245 246 245 244 244 245 243 238 230 225 221 219 218 218 219 218 218 220 222 223 222 216 207 204 205 202 196
271 270 273 275 276 276 277 276 276 277 277 275 273 273 273 273 273 275 277 278 278 275 269 266 266 266 258 242 227 220 217 215 213 212 211 211 214 218 221 225 230 235 238 241 243 243 242 242 244 245 247 248 249 249 249 248 245 243 243 246 248 247 246 245 244 241 236 229 223 218 215 213 213 215 215 214 215 215 213 206 197 195 196 196 193
270 270 270 272 274 275 277 279 280 279 278 276 272 272 273 275 277 281 283 285 284 279 268 256 246 236 217 192 179 170 165 166 166 161 160 163 163 168 181 188 193 201 210 221 230 233 234 235 236 237 238 241 245 247 246 244 240 235 234 239 244 246 246 246 243 239 233 226 220 216 212 207 203 203 204 203 203 201 196 189 185 185 186 186 184
269 270 270 271 274 276 278 282 283 281 279 276 272 270 271 275 282 290 293 298 304 300 284 187 154 147 137 130 128 124 121 121 119 118 119 119 119 122 123 120 116 114 109 103 102 108 120 141 165 182 197 210 218 221 216 210 208 211 216 224 231 235 236 235 232 227 223 220 215 211 206 198 190 187 187 187 186 183 178 175 174 174 176 178 178
265 268 272 277 279 279 281 285 285 283 278 272 267 263 261 262 282 319 334 359 39 60 76 87 92 97 102 103 104 105 104 103 101 100 101 103 105 107 108 107 105 103 100 96 92 93 98 104 110 116 125 128 125 130 147 163 175 187 197 204 209 212 214 213 211 207 206 202 195 190 188 182 176 172 170 169 167 166 162 160 158 157 157 157 157
265 270 280 286 287 287 288 289 286 282 276 266 253 237 196 131 105 92 91 92 90 85 85 88 89 91 94 97 99 99 100 100 99 98 99 100 102 104 104 103 102 100 98 95 92 91 92 93 94 94 94 95 96 97 100 106 117 132 146 156 167 177 181 180 176 174 173 170 167 166 166 162 159 157 155 154 152 150 146 142 139 136 132 129 127
288 301 301 300 306 312 316 315 304 287 271 252 218 159 120 105 100 100 101 101 97 94 93 93 94 95 97 98 100 100 100 100 101 100 100 100 102 104 104 102 101 100 98 96 93 91 90 89 88 87 86 85 86 87 88 89 93 102 112 122 134 144 148 148 146 146 147 149 149 148 147 145 142 140 139 139 139 137 135 134 132 130 127 124 120